SCP
0 -0 -0 -0 -0 -0 -0 -0 -0 0 0 0 0 0 0 0 -0 -0 -0 0 0 0 0 0 0 0 0 0 0 0 0 0 0 -0 0 -0 -0 -0 -0 -0 -0 0 0
-0 -0 -0 -0 -0 -0 -0 -0 -0 -0 -0 0 0 0 0 -0 -0 -0 -0 0 0 0 0 0 0 0 0 0 0 0 0 0 0 0 0 0 -0 -0 -0 -0 -0 0 -0
0 -0 -0 -0 -0 -0 -0 -0 -0 -0 -0 -0 -0 0 0 0 0 0 0 0 0 0 0 0 0 0 0 0 0 0 0 0 0 0 0 0 0 0 0 -0 0 0 0
0 -0 -0 -0 -0 -0 -0 -0 -0 -0 -0 -0 -0 -0 -0 0 0 0 0 0 0 0 0 0 0 0 0 0 0 0 0 0 0 0 0 0 0 0 0 0 0 0 0
0 -0 -0 -0 -0 -0 -0 -0 -0 -0 -0 -0 -0 -0 -0 -0 0 0 0 0 0 0 0 0 0 0 0 0 0 0 0 0 0 0 0 0 0 0 0 0 0 0 0
0 0 -0 -0 -0 -0 -0 -0 -0 -0 -0 -0 -0 -0 -0 -0 0 0 0 0 0 0 0 0 0 0 0 0 0 0 0 0 0 0 0 0 0 0 0 0 0 0 0
0 0 0 -0 -0 -0 -0 -0 -0 -0 -0 -0 -0 -0 -0 0 0 0 0 0 0 0 0 0 0 0 0 0 0 0 0 0 0 0 0 0 0 0 0 0 0 0 0
0 0 0 0 -0 -0 -0 -0 -0 -0 0 0 -0 0 -0 0 0 0 0 0 0 0 0 0 0 0 0 0 0 0 0 0 0 0 0 0 0 0 0 0 0 0 0
0 0 0 0 0 0 0 -0 -0 -0 -0 0 0 0 0 0 0 0 0 0 0 0 0 0 0 0 0 0 0 0 0 0 0 0 0 0 0 0 0 0 0 0 0
0 0 0 0 0 0 0 0 0 0 0 0 0 0 0 0 0 0 0 0 0 0 0 0 0 0 0 0 0 0 0 0 0 0 0 0 0 0 0 0 0 0 0
0 0 0 0 0 0 0 0 0 0 0 0 0 0 0 0 0 0 0 0 0 0 0 0 0 0 0 0 0 0 0 0 0 0 0 0 0 0 0 0 0 0 0
0 0 0 0 0 0 0 0 0 0 0 0 0 0 0 0 0 0 0 0 0 0 0 0 0 0 0 0 0 0 0 0 0 0 0 0 0 0 0 0 0 0 0
0 0 0 0 0 0 0 0 0 0 0 0 0 0 0 0 0 0 0 0 0 0 0 0 0 0 0 0 0 0 0 0 0 0 0 0 0 0 0 0 0 0 0
0 0 0 0 0 0 0 0 0 0 0 0 0 0 0 0 0 0 0 0 0 0 0 0 0 0 0 0 0 0 0 0 0 0 0 0 0 0 0 0 0 0 0
0 0 0 0 0 0 0 0 0 0 0 0 0 0 0 0 0 0 0 0 0 0 0 0 0 0 0 0 0 0 0 0 0 0 0 0 0 0 0 0 0 0 0
0 0 0 0 0 0 0 0 0 0 0 0 0 0 0 0 0 0 0 0 0 0 0 0 0 0 0 0 0 0 0 0 0 0 0 0 0 0 0 0 0 0 0
0 0 0 0 0 0 0 0 0 0 0 0 0 0 0 0 0 0 0 0 0 0 0 0 0 0 0 0 0 0 0 0 0 0 0 0 0 0 0 0 0 0 0
0 0 0 0 0 0 0 0 0 0 0 0 0 0 0 0 0 0 0 0 0 0 0 0 0 0 0 0 0 0 0 0 0 0 0 0 0 0 0 0 0 0 0
0 0 0 0 0 0 0 0 0 0 0 0 0 0 0 0 0 0 0 0 0 0 0 0 0 0 0 0 0 0 0 0 0 0 0 0 0 0 0 0 0 0 0
0 0 0 0 0 0 0 0 0 0 0 0 0 0 0 0 0 0 0 0 0 0 0 0 0 0 0 0 0 0 0 0 0 0 0 0 0 0 0 0 0 0 0
0 0 0 0 0 0 0 0 0 0 0 0 0 0 0 0 0 0 0 0 0 0 0 0 0 0 0 0 0 0 0 0 0 0 0 0 0 0 0 0 0 0 0
0 0 0 0 0 0 0 0 0 0 0 0 0 0 0 0 0 0 0 0 0 0 0 0 0 0 0 0 0 0 0 0 0 0 0 0 0 0 0 0 0 0 0
0 0 0 0 0 0 0 0 0 0 0 0 0 0 0 0 0 0 0 0 0 0 0 0 0 0 0 0 0 0 0 0 0 0 0 0 0 0 0 0 0 0 0
0 0 0 0 0 0 0 0 0 0 0 0 0 0 0 0 0 0 0 0 0 0 0 0 0 0 0 0 0 0 0 0 0 0 0 0 0 0 0 0 0 0 0
0 0 0 0 0 0 0 0 0 0 0 0 0 0 0 0 0 0 0 0 0 0 0 0 0 0 0 0 0 0 0 0 0 0 0 0 0 0 0 0 0 0 0
0 0 0 0 0 0 -0 -0 0 0 0 0 0 0 0 0 0 0 0 0 0 0 0 0 0 0 0 0 0 0 0 0 0 0 0 0 -0 -0 0 0 0 0 0
Wind_Speed_500mb
20 38 39 36 35 35 32 32 34 33 29 25 20 16 14 13 12 14 15 10 2 3 7 7 5 5 4 4 4 6 9 12 10 10 13 13 14 18 21 20 19 18 12
16 36 39 36 35 36 32 30 29 28 26 22 17 14 15 15 15 14 14 10 7 6 7 6 8 7 6 5 3 4 7 10 10 6 7 7 10 10 10 13 17 19 18
16 28 39 38 35 34 32 31 29 27 25 22 19 16 15 15 15 13 12 11 11 10 7 2 4 4 5 4 3 2 6 9 8 7 5 5 6 4 4 6 9 14 16
10 21 36 39 38 36 34 30 28 27 23 21 19 18 17 18 17 14 13 13 12 9 8 4 3 2 1 2 4 6 8 8 7 4 3 2 1 2 5 4 6 6 9
8 16 28 36 38 37 35 32 29 27 24 21 20 20 21 18 19 16 15 16 16 10 10 9 7 6 5 7 8 10 12 10 10 6 5 4 4 3 3 5 5 5 5
9 11 23 33 36 37 36 34 33 30 26 24 21 23 21 13 14 17 18 21 23 18 13 12 10 9 10 11 12 14 16 14 13 12 11 8 6 8 1 1 9 7 5
7 12 18 30 36 37 37 36 35 33 30 27 25 26 28 26 21 20 23 27 29 25 16 14 12 12 12 13 13 17 19 18 16 16 16 16 13 15 15 12 10 8 8
6 12 17 25 36 40 40 39 38 36 33 30 32 31 25 26 25 25 25 29 29 23 16 15 14 13 12 10 10 16 17 17 17 19 20 21 22 24 20 18 17 13 13
9 14 17 23 31 40 43 43 42 40 37 36 36 29 30 26 26 25 20 20 21 18 18 18 17 14 12 11 11 12 13 14 15 19 20 22 24 25 23 22 21 18 17
12 13 18 22 29 36 44 47 45 43 40 41 38 36 35 36 34 27 18 17 21 21 19 18 17 16 14 14 13 14 15 14 14 17 18 21 23 24 22 22 20 21 20
22 23 22 25 30 34 38 44 48 47 45 44 41 40 40 40 39 30 22 21 20 20 23 19 18 18 19 18 17 18 17 16 16 17 18 20 21 22 22 21 22 22 22
38 35 31 29 32 35 36 39 45 49 50 48 45 43 42 40 38 38 26 27 28 24 26 23 21 21 22 21 20 21 19 19 18 19 19 19 20 21 21 21 22 23 24
47 42 42 37 34 37 38 38 42 46 50 48 46 45 43 44 44 42 38 35 33 31 30 28 25 23 26 25 24 24 23 23 21 20 20 20 20 21 22 22 24 25 25
29 30 36 42 41 37 36 38 37 42 46 50 50 48 46 46 48 47 45 40 38 36 33 31 28 27 31 30 29 28 27 26 24 24 23 22 23 23 23 23 25 27 27
32 27 28 34 38 38 37 35 33 36 42 48 51 50 50 47 48 45 46 43 40 39 37 36 34 32 34 35 34 34 32 31 29 28 27 25 25 26 26 26 27 30 27
31 30 34 33 31 35 34 35 31 27 29 36 42 49 50 50 50 50 44 45 43 41 35 37 38 38 39 40 41 40 38 38 35 33 32 31 29 28 28 28 30 32 29
26 27 24 29 30 28 29 32 31 26 22 24 27 30 33 37 40 43 44 47 48 49 41 38 42 44 44 45 46 45 45 44 42 40 38 36 34 32 32 31 31 33 32
17 20 22 21 25 28 27 31 29 26 21 21 25 27 30 32 36 43 46 48 45 46 46 42 46 46 45 46 47 48 50 50 49 47 47 44 41 38 36 35 35 34 33
11 10 9 6 15 19 21 26 25 22 20 19 22 25 28 29 32 37 41 41 44 45 46 42 44 43 45 45 47 48 52 55 55 55 54 51 48 44 42 40 39 38 37
16 16 11 10 8 10 9 13 15 16 14 17 20 22 23 24 27 30 31 31 34 39 41 41 41 40 43 45 50 54 56 57 58 60 60 58 55 52 49 46 44 42 42
13 14 17 13 16 9 7 9 8 10 9 15 18 21 21 21 20 18 20 28 29 30 35 36 41 41 43 45 49 56 60 61 63 62 63 63 60 58 56 54 51 48 46
48 43 34 27 20 16 11 5 2 2 5 7 8 11 16 19 20 22 26 20 25 26 28 31 35 39 42 43 48 52 49 54 55 56 61 62 64 66 65 61 59 55 52
56 57 55 51 46 40 28 16 11 7 6 2 5 5 9 11 15 21 23 25 29 31 33 32 31 34 39 42 44 39 21 12 29 16 19 31 45 59 64 66 65 62 59
52 49 48 45 45 44 38 32 26 22 20 20 16 15 13 13 14 14 17 21 27 29 31 35 37 35 37 42 44 46 50 56 61 45 45 43 31 45 46 47 51 60 63
46 47 47 43 40 38 35 33 31 30 30 26 20 14 15 18 19 20 19 19 23 27 29 30 32 34 35 39 42 47 51 52 56 65 80 76 69 68 67 65 62 57 55
32 31 30 28 30 29 29 29 27 24 23 19 20 21 21 21 23 24 24 24 23 22 28 34 34 32 32 38 42 43 49 52 55 58 69 82 87 91 85 80 74 69 68
Wind_Direction_500mb
184 176 182 184 184 185 185 180 177 178 182 181 176 175 177 176 171 152 163 162 149 353 2 39 47 61 74 95 115 120 127 127 122 115 104 96 83 91 102 91 92 82 83
187 179 184 190 190 191 194 195 192 190 192 195 198 195 188 184 183 187 190 213 248 290 329 37 49 77 83 86 113 141 147 156 160 154 125 130 108 95 105 126 115 103 88
184 187 186 193 196 201 205 205 203 202 204 208 208 208 205 203 196 210 222 244 276 304 309 359 53 74 86 99 114 164 169 164 170 155 124 98 142 133 164 139 159 155 127
179 191 192 195 199 204 209 211 209 210 214 218 219 222 224 222 222 230 243 262 285 297 279 295 324 341 51 253 200 215 213 199 202 233 247 165 306 257 225 206 213 176 168
181 193 198 200 203 208 213 214 218 219 224 224 226 231 240 222 223 236 254 271 280 285 281 279 286 291 284 257 240 241 240 230 236 232 226 226 306 40 270 234 228 218 195
210 198 203 209 212 214 217 219 220 224 228 231 234 231 233 245 241 252 263 272 278 285 272 271 280 291 281 262 248 242 242 239 240 241 243 245 264 307 330 272 241 233 224
254 222 212 214 220 222 225 226 227 229 229 228 228 235 240 251 259 263 269 273 273 278 279 278 286 284 276 265 251 245 238 238 240 248 254 257 261 265 284 311 310 248 240
265 242 229 219 222 227 229 231 233 235 235 229 227 230 235 242 258 270 278 274 265 270 275 279 283 279 274 257 242 238 238 237 243 250 257 258 262 271 283 287 296 282 263
280 248 244 234 226 228 233 235 236 235 235 235 236 239 234 250 266 273 285 291 276 276 280 289 287 280 262 247 240 245 248 245 247 250 255 261 265 274 285 289 291 281 270
290 275 262 248 240 233 231 233 236 238 237 238 240 243 248 260 267 267 267 299 289 283 279 283 277 273 256 253 254 257 260 259 256 260 262 263 269 278 285 286 285 282 280
294 293 280 263 250 243 239 237 236 236 236 239 241 245 249 253 260 259 263 285 299 288 286 281 268 256 244 245 250 256 259 261 262 264 265 266 271 278 280 282 283 283 283
297 291 278 277 260 249 245 241 238 238 237 236 237 241 246 252 251 265 268 277 284 294 290 284 270 258 250 250 253 258 262 265 268 271 270 272 276 278 278 280 281 282 284
290 279 267 268 271 257 250 248 244 242 238 238 239 239 243 247 248 253 261 270 276 284 293 287 275 264 254 253 255 259 264 267 268 269 271 276 279 280 281 281 281 281 282
294 280 267 261 263 262 256 252 253 249 243 234 239 241 241 241 244 251 255 262 266 276 283 286 280 264 255 254 256 259 262 266 269 272 274 277 280 280 281 284 287 290 292
289 286 271 255 258 256 256 258 259 257 252 243 243 249 251 247 250 253 256 260 267 271 276 283 281 272 262 257 256 259 261 264 267 271 275 277 280 286 290 291 290 291 292
295 280 276 264 254 250 255 257 263 271 268 255 249 252 257 254 256 254 260 265 274 282 279 279 278 273 267 259 258 260 262 264 265 266 269 274 276 280 282 284 285 288 291
308 305 283 267 244 234 249 254 260 271 276 268 260 258 261 260 256 253 264 267 274 280 287 284 282 276 271 267 263 261 261 263 263 263 264 266 268 269 273 275 277 281 285
323 309 301 275 233 218 227 236 247 259 272 289 268 260 256 263 263 260 267 272 273 282 277 282 287 279 277 274 270 266 264 262 261 261 260 261 263 264 267 270 270 270 273
359 347 309 264 209 207 214 222 234 246 251 256 257 262 261 260 263 270 275 274 276 274 276 278 285 283 281 277 277 273 270 267 263 259 259 259 261 262 263 266 269 270 268
33 39 40 65 118 134 159 193 215 224 232 250 252 248 250 256 265 265 269 271 273 277 277 284 286 287 287 284 283 280 276 273 269 265 262 260 261 261 262 263 265 265 265
53 62 68 74 76 92 154 174 191 222 217 250 255 255 256 256 248 262 279 280 281 279 272 285 286 288 289 293 292 287 283 279 274 270 267 267 267 267 267 265 265 262 261
66 64 63 63 63 67 68 78 166 186 195 219 262 273 271 268 265 270 267 263 265 282 296 287 286 289 287 289 291 299 302 291 286 278 271 268 267 265 265 264 263 263 261
68 64 62 61 59 58 56 60 68 69 95 167 288 331 342 307 293 285 279 273 274 278 281 287 289 289 287 285 289 285 301 293 320 300 299 286 271 267 265 265 264 263 261
66 63 61 59 60 62 62 59 60 63 61 52 37 28 4 343 332 317 311 296 281 282 283 282 282 285 286 285 283 282 283 284 287 295 281 277 273 286 285 287 280 270 266
58 49 42 40 41 47 48 52 59 62 65 65 58 41 30 19 12 6 358 340 326 320 310 303 290 285 286 282 280 283 283 283 283 283 288 289 283 276 276 275 274 277 281
63 53 48 45 46 39 25 23 29 45 55 52 51 42 40 35 28 22 21 23 18 359 343 331 321 314 303 289 284 279 278 284 285 283 286 287 287 283 278 272 270 268 267
Wind_Speed_850mb
20 38 39 36 35 35 32 32 34 33 29 25 20 16 14 13 12 14 15 10 2 3 7 7 5 5 4 4 4 6 9 12 10 10 13 13 14 18 21 20 19 18 12
16 36 39 36 35 36 32 30 29 28 26 22 17 14 15 15 15 14 14 10 7 6 7 6 8 7 6 5 3 4 7 10 10 6 7 7 10 10 10 13 17 19 18
16 28 39 38 35 34 32 31 29 27 25 22 19 16 15 15 15 13 12 11 11 10 7 2 4 4 5 4 3 2 6 9 8 7 5 5 6 4 4 6 9 14 16
10 21 36 39 38 36 34 30 28 27 23 21 19 18 17 18 17 14 13 13 12 9 8 4 3 2 1 2 4 6 8 8 7 4 3 2 1 2 5 4 6 6 9
8 16 28 36 38 37 35 32 29 27 24 21 20 20 21 18 19 16 15 16 16 10 10 9 7 6 5 7 8 10 12 10 10 6 5 4 4 3 3 5 5 5 5
9 11 23 33 36 37 36 34 33 30 26 24 21 23 21 13 14 17 18 21 23 18 13 12 10 9 10 11 12 14 16 14 13 12 11 8 6 8 1 1 9 7 5
7 12 18 30 36 37 37 36 35 33 30 27 25 26 28 26 21 20 23 27 29 25 16 14 12 12 12 13 13 17 19 18 16 16 16 16 13 15 15 12 10 8 8
6 12 17 25 36 40 40 39 38 36 33 30 32 31 25 26 25 25 25 29 29 23 16 15 14 13 12 10 10 16 17 17 17 19 20 21 22 24 20 18 17 13 13
9 14 17 23 31 40 43 43 42 40 37 36 36 29 30 26 26 25 20 20 21 18 18 18 17 14 12 11 11 12 13 14 15 19 20 22 24 25 23 22 21 18 17
12 13 18 22 29 36 44 47 45 43 40 41 38 36 35 36 34 27 18 17 21 21 19 18 17 16 14 14 13 14 15 14 14 17 18 21 23 24 22 22 20 21 20
22 23 22 25 30 34 38 44 48 47 45 44 41 40 40 40 39 30 22 21 20 20 23 19 18 18 19 18 17 18 17 16 16 17 18 20 21 22 22 21 22 22 22
38 35 31 29 32 35 36 39 45 49 50 48 45 43 42 40 38 38 26 27 28 24 26 23 21 21 22 21 20 21 19 19 18 19 19 19 20 21 21 21 22 23 24
47 42 42 37 34 37 38 38 42 46 50 48 46 45 43 44 44 42 38 35 33 31 30 28 25 23 26 25 24 24 23 23 21 20 20 20 20 21 22 22 24 25 25
29 30 36 42 41 37 36 38 37 42 46 50 50 48 46 46 48 47 45 40 38 36 33 31 28 27 31 30 29 28 27 26 24 24 23 22 23 23 23 23 25 27 27
32 27 28 34 38 38 37 35 33 36 42 48 51 50 50 47 48 45 46 43 40 39 37 36 34 32 34 35 34 34 32 31 29 28 27 25 25 26 26 26 27 30 27
31 30 34 33 31 35 34 35 31 27 29 36 42 49 50 50 50 50 44 45 43 41 35 37 38 38 39 40 41 40 38 38 35 33 32 31 29 28 28 28 30 32 29
26 27 24 29 30 28 29 32 31 26 22 24 27 30 33 37 40 43 44 47 48 49 41 38 42 44 44 45 46 45 45 44 42 40 38 36 34 32 32 31 31 33 32
17 20 22 21 25 28 27 31 29 26 21 21 25 27 30 32 36 43 46 48 45 46 46 42 46 46 45 46 47 48 50 50 49 47 47 44 41 38 36 35 35 34 33
11 10 9 6 15 19 21 26 25 22 20 19 22 25 28 29 32 37 41 41 44 45 46 42 44 43 45 45 47 48 52 55 55 55 54 51 48 44 42 40 39 38 37
16 16 11 10 8 10 9 13 15 16 14 17 20 22 23 24 27 30 31 31 34 39 41 41 41 40 43 45 50 54 56 57 58 60 60 58 55 52 49 46 44 42 42
13 14 17 13 16 9 7 9 8 10 9 15 18 21 21 21 20 18 20 28 29 30 35 36 41 41 43 45 49 56 60 61 63 62 63 63 60 58 56 54 51 48 46
48 43 34 27 20 16 11 5 2 2 5 7 8 11 16 19 20 22 26 20 25 26 28 31 35 39 42 43 48 52 49 54 55 56 61 62 64 66 65 61 59 55 52
56 57 55 51 46 40 28 16 11 7 6 2 5 5 9 11 15 21 23 25 29 31 33 32 31 34 39 42 44 39 21 12 29 16 19 31 45 59 64 66 65 62 59
52 49 48 45 45 44 38 32 26 22 20 20 16 15 13 13 14 14 17 21 27 29 31 35 37 35 37 42 44 46 50 56 61 45 45 43 31 45 46 47 51 60 63
46 47 47 43 40 38 35 33 31 30 30 26 20 14 15 18 19 20 19 19 23 27 29 30 32 34 35 39 42 47 51 52 56 65 80 76 69 68 67 65 62 57 55
32 31 30 28 30 29 29 29 27 24 23 19 20 21 21 21 23 24 24 24 23 22 28 34 34 32 32 38 42 43 49 52 55 58 69 82 87 91 85 80 74 69 68
Wind_Direction_850mb
184 176 182 184 184 185 185 180 177 178 182 181 176 175 177 176 171 152 163 162 149 353 2 39 47 61 74 95 115 120 127 127 122 115 104 96 83 91 102 91 92 82 83
187 179 184 190 190 191 194 195 192 190 192 195 198 195 188 184 183 187 190 213 248 290 329 37 49 77 83 86 113 141 147 156 160 154 125 130 108 95 105 126 115 103 88
184 187 186 193 196 201 205 205 203 202 204 208 208 208 205 203 196 210 222 244 276 304 309 359 53 74 86 99 114 164 169 164 170 155 124 98 142 133 164 139 159 155 127
179 191 192 195 199 204 209 211 209 210 214 218 219 222 224 222 222 230 243 262 285 297 279 295 324 341 51 253 200 215 213 199 202 233 247 165 306 257 225 206 213 176 168
181 193 198 200 203 208 213 214 218 219 224 224 226 231 240 222 223 236 254 271 280 285 281 279 286 291 284 257 240 241 240 230 236 232 226 226 306 40 270 234 228 218 195
210 198 203 209 212 214 217 219 220 224 228 231 234 231 233 245 241 252 263 272 278 285 272 271 280 291 281 262 248 242 242 239 240 241 243 245 264 307 330 272 241 233 224
254 222 212 214 220 222 225 226 227 229 229 228 228 235 240 251 259 263 269 273 273 278 279 278 286 284 276 265 251 245 238 238 240 248 254 257 261 265 284 311 310 248 240
265 242 229 219 222 227 229 231 233 235 235 229 227 230 235 242 258 270 278 274 265 270 275 279 283 279 274 257 242 238 238 237 243 250 257 258 262 271 283 287 296 282 263
280 248 244 234 226 228 233 235 236 235 235 235 236 239 234 250 266 273 285 291 276 276 280 289 287 280 262 247 240 245 248 245 247 250 255 261 265 274 285 289 291 281 270
290 275 262 248 240 233 231 233 236 238 237 238 240 243 248 260 267 267 267 299 289 283 279 283 277 273 256 253 254 257 260 259 256 260 262 263 269 278 285 286 285 282 280
294 293 280 263 250 243 239 237 236 236 236 239 241 245 249 253 260 259 263 285 299 288 286 281 268 256 244 245 250 256 259 261 262 264 265 266 271 278 280 282 283 283 283
297 291 278 277 260 249 245 241 238 238 237 236 237 241 246 252 251 265 268 277 284 294 290 284 270 258 250 250 253 258 262 265 268 271 270 272 276 278 278 280 281 282 284
290 279 267 268 271 257 250 248 244 242 238 238 239 239 243 247 248 253 261 270 276 284 293 287 275 264 254 253 255 259 264 267 268 269 271 276 279 280 281 281 281 281 282
294 280 267 261 263 262 256 252 253 249 243 234 239 241 241 241 244 251 255 262 266 276 283 286 280 264 255 254 256 259 262 266 269 272 274 277 280 280 281 284 287 290 292
289 286 271 255 258 256 256 258 259 257 252 243 243 249 251 247 250 253 256 260 267 271 276 283 281 272 262 257 256 259 261 264 267 271 275 277 280 286 290 291 290 291 292
295 280 276 264 254 250 255 257 263 271 268 255 249 252 257 254 256 254 260 265 274 282 279 279 278 273 267 259 258 260 262 264 265 266 269 274 276 280 282 284 285 288 291
308 305 283 267 244 234 249 254 260 271 276 268 260 258 261 260 256 253 264 267 274 280 287 284 282 276 271 267 263 261 261 263 263 263 264 266 268 269 273 275 277 281 285
323 309 301 275 233 218 227 236 247 259 272 289 268 260 256 263 263 260 267 272 273 282 277 282 287 279 277 274 270 266 264 262 261 261 260 261 263 264 267 270 270 270 273
359 347 309 264 209 207 214 222 234 246 251 256 257 262 261 260 263 270 275 274 276 274 276 278 285 283 281 277 277 273 270 267 263 259 259 259 261 262 263 266 269 270 268
33 39 40 65 118 134 159 193 215 224 232 250 252 248 250 256 265 265 269 271 273 277 277 284 286 287 287 284 283 280 276 273 269 265 262 260 261 261 262 263 265 265 265
53 62 68 74 76 92 154 174 191 222 217 250 255 255 256 256 248 262 279 280 281 279 272 285 286 288 289 293 292 287 283 279 274 270 267 267 267 267 267 265 265 262 261
66 64 63 63 63 67 68 78 166 186 195 219 262 273 271 268 265 270 267 263 265 282 296 287 286 289 287 289 291 299 302 291 286 278 271 268 267 265 265 264 263 263 261
68 64 62 61 59 58 56 60 68 69 95 167 288 331 342 307 293 285 279 273 274 278 281 287 289 289 287 285 289 285 301 293 320 300 299 286 271 267 265 265 264 263 261
66 63 61 59 60 62 62 59 60 63 61 52 37 28 4 343 332 317 311 296 281 282 283 282 282 285 286 285 283 282 283 284 287 295 281 277 273 286 285 287 280 270 266
58 49 42 40 41 47 48 52 59 62 65 65 58 41 30 19 12 6 358 340 326 320 310 303 290 285 286 282 280 283 283 283 283 283 288 289 283 276 276 275 274 277 281
63 53 48 45 46 39 25 23 29 45 55 52 51 42 40 35 28 22 21 23 18 359 343 331 321 314 303 289 284 279 278 284 285 283 286 287 287 283 278 272 270 268 267